When you browse on this site, cookies collect data to enhance your experience and personalize the content and advertising you see.
Visit our Privacy Policy to learn more. By continuing to use the site, you agree to this use of cookies and data.
  • In Romania
  • List of Countries
  • For 7 days
  • Water Temperature
  • Weather Map
  • Weather Widgets
  • user-avatar
    Login

    Hourly Weather Molepolole

    Today, 13 December, Friday

    Time Temperature Precipitation Wind Pressure Humidity
    00:00 +25°C° 0 mm 2 mps 663 mmHg 40%
    01:00 +24°C° 0 mm 2 mps 663 mmHg 41%
    02:00 +22°C° 0 mm 3 mps 663 mmHg 42%
    03:00 +22°C° 0 mm 3 mps 663 mmHg 52%
    04:00 +21°C° 0 mm 3 mps 663 mmHg 62%
    05:00 +20°C° 0 mm 3 mps 663 mmHg 73%
    06:00 +21°C° 0 mm 4 mps 664 mmHg 72%
    07:00 +22°C° 0 mm 5 mps 665 mmHg 71%
    08:00 +23°C° 0 mm 7 mps 666 mmHg 70%
    09:00 +24°C° 0 mm 6 mps 666 mmHg 64%
    10:00 +27°C° 0 mm 6 mps 666 mmHg 58%
    11:00 +28°C° 0 mm 6 mps 666 mmHg 52%
    12:00 +30°C° 0 mm 5 mps 666 mmHg 46%
    13:00 +32°C° 0 mm 5 mps 666 mmHg 40%
    14:00 +33°C° 0 mm 4 mps 666 mmHg 35%
    15:00 +33°C° 0 mm 4 mps 665 mmHg 34%
    16:00 +33°C° 0 mm 3 mps 665 mmHg 34%
    17:00 +33°C° 0 mm 3 mps 664 mmHg 33%
    18:00 +31°C° 0 mm 3 mps 664 mmHg 35%
    19:00 +29°C° 0 mm 3 mps 664 mmHg 38%
    20:00 +28°C° 0 mm 3 mps 664 mmHg 40%
    21:00 +27°C° 0 mm 4 mps 664 mmHg 44%
    22:00 +26°C° 0 mm 5 mps 664 mmHg 48%
    23:00 +24°C° 0 mm 6 mps 664 mmHg 53%

    Tomorrow, 14 December, Saturday

    Time Temperature Precipitation Wind Pressure Humidity
    00:00 +24°C° 0 mm 6 mps 664 mmHg 56%
    01:00 +23°C° 0 mm 5 mps 664 mmHg 59%
    02:00 +22°C° 0 mm 4 mps 664 mmHg 62%
    03:00 +22°C° 0 mm 4 mps 664 mmHg 64%
    04:00 +21°C° 0 mm 4 mps 664 mmHg 65%
    05:00 +20°C° 0 mm 4 mps 664 mmHg 67%
    06:00 +21°C° 0 mm 5 mps 665 mmHg 64%
    07:00 +22°C° 0 mm 5 mps 665 mmHg 62%
    08:00 +23°C° 0 mm 6 mps 666 mmHg 60%
    09:00 +26°C° 0 mm 6 mps 666 mmHg 52%
    10:00 +28°C° 0 mm 5 mps 667 mmHg 45%
    11:00 +32°C° 0 mm 5 mps 667 mmHg 37%
    12:00 +33°C° 0 mm 5 mps 667 mmHg 34%
    13:00 +34°C° 0 mm 4 mps 666 mmHg 30%
    14:00 +35°C° 0 mm 3 mps 666 mmHg 26%
    15:00 +36°C° 0 mm 3 mps 665 mmHg 24%
    16:00 +36°C° 0 mm 2 mps 665 mmHg 22%
    17:00 +36°C° 0 mm 2 mps 664 mmHg 20%
    18:00 +34°C° 0 mm 2 mps 664 mmHg 23%
    19:00 +32°C° 0 mm 2 mps 663 mmHg 26%
    20:00 +30°C° 0 mm 2 mps 663 mmHg 29%
    21:00 +29°C° 0 mm 2 mps 663 mmHg 32%
    22:00 +28°C° 0 mm 3 mps 663 mmHg 34%
    23:00 +28°C° 0 mm 4 mps 664 mmHg 36%

    Day after tomorrow, 15 December, Sunday

    Time Temperature Precipitation Wind Pressure Humidity
    00:00 +27°C° 0 mm 4 mps 663 mmHg 39%
    01:00 +26°C° 0 mm 4 mps 663 mmHg 42%
    02:00 +26°C° 0 mm 4 mps 663 mmHg 44%
    03:00 +26°C° 0 mm 3 mps 663 mmHg 45%
    04:00 +25°C° 0 mm 2 mps 663 mmHg 46%
    05:00 +25°C° 0 mm 1 mps 663 mmHg 47%
    06:00 +26°C° 0 mm 2 mps 664 mmHg 45%
    07:00 +28°C° 0 mm 3 mps 664 mmHg 42%
    08:00 +29°C° 0 mm 4 mps 665 mmHg 40%
    09:00 +32°C° 0 mm 5 mps 665 mmHg 35%
    10:00 +34°C° 0 mm 5 mps 665 mmHg 30%
    11:00 +36°C° 0 mm 6 mps 665 mmHg 25%
    12:00 +37°C° 0 mm 5 mps 665 mmHg 23%
    13:00 +37°C° 0 mm 5 mps 664 mmHg 22%
    14:00 +37°C° 0 mm 4 mps 663 mmHg 21%
    15:00 +37°C° 0 mm 4 mps 663 mmHg 21%
    16:00 +36°C° 0 mm 4 mps 663 mmHg 22%
    17:00 +36°C° 0 mm 3 mps 662 mmHg 23%
    18:00 +34°C° 0 mm 3 mps 663 mmHg 25%
    19:00 +32°C° 0 mm 2 mps 663 mmHg 27%
    20:00 +30°C° 0 mm 1 mps 663 mmHg 29%
    21:00 +29°C° 0 mm 1 mps 663 mmHg 30%
    22:00 +28°C° 0 mm 2 mps 663 mmHg 31%
    23:00 +27°C° 0 mm 2 mps 663 mmHg 32%

    16 December, Monday

    Time Temperature Precipitation Wind Pressure Humidity
    00:00 +27°C° 0 mm 2 mps 663 mmHg 30%
    01:00 +26°C° 0 mm 3 mps 662 mmHg 28%
    02:00 +25°C° 0 mm 3 mps 662 mmHg 26%
    03:00 +25°C° 0 mm 3 mps 662 mmHg 28%
    04:00 +24°C° 0 mm 3 mps 662 mmHg 30%
    05:00 +22°C° 0 mm 3 mps 662 mmHg 32%
    06:00 +25°C° 0 mm 3 mps 663 mmHg 32%
    07:00 +26°C° 0 mm 4 mps 664 mmHg 31%
    08:00 +28°C° 0 mm 4 mps 664 mmHg 30%
    09:00 +30°C° 0 mm 5 mps 665 mmHg 31%
    10:00 +33°C° 0 mm 6 mps 665 mmHg 33%
    11:00 +34°C° 0 mm 7 mps 665 mmHg 34%
    12:00 +35°C° 0 mm 6 mps 665 mmHg 31%
    13:00 +36°C° 0 mm 5 mps 664 mmHg 27%
    14:00 +37°C° 0 mm 5 mps 664 mmHg 24%
    15:00 +34°C° 0.7 mm 6 mps 663 mmHg 32%
    16:00 +30°C° 0.7 mm 7 mps 662 mmHg 40%
    17:00 +28°C° 0.7 mm 8 mps 661 mmHg 48%
    18:00 +26°C° 0.1 mm 7 mps 661 mmHg 55%
    19:00 +24°C° 0.1 mm 7 mps 662 mmHg 62%
    20:00 +22°C° 0.1 mm 6 mps 662 mmHg 69%
    21:00 +22°C° 0.3 mm 6 mps 663 mmHg 71%
    22:00 +22°C° 0.3 mm 7 mps 664 mmHg 73%
    23:00 +22°C° 0.3 mm 8 mps 665 mmHg 75%

    17 December, Tuesday

    Time Temperature Precipitation Wind Pressure Humidity
    00:00 +21°C° 0 mm 7 mps 664 mmHg 77%
    01:00 +20°C° 0 mm 6 mps 664 mmHg 78%
    02:00 +20°C° 0 mm 6 mps 663 mmHg 80%
    03:00 +19°C° 0.1 mm 5 mps 663 mmHg 81%
    04:00 +19°C° 0.1 mm 4 mps 663 mmHg 83%
    05:00 +19°C° 0.1 mm 3 mps 664 mmHg 84%
    06:00 +19°C° 0 mm 5 mps 664 mmHg 80%
    07:00 +20°C° 0 mm 6 mps 665 mmHg 76%
    08:00 +20°C° 0 mm 7 mps 665 mmHg 73%
    09:00 +22°C° 0.1 mm 7 mps 666 mmHg 67%
    10:00 +24°C° 0.1 mm 6 mps 666 mmHg 61%
    11:00 +26°C° 0.1 mm 6 mps 667 mmHg 55%
    12:00 +28°C° 0 mm 5 mps 666 mmHg 51%
    13:00 +29°C° 0 mm 5 mps 666 mmHg 47%
    14:00 +30°C° 0 mm 5 mps 665 mmHg 42%
    15:00 +30°C° 0 mm 4 mps 665 mmHg 42%
    16:00 +30°C° 0 mm 3 mps 664 mmHg 42%
    17:00 +30°C° 0 mm 3 mps 664 mmHg 42%
    18:00 +29°C° 0.1 mm 3 mps 663 mmHg 47%
    19:00 +27°C° 0.1 mm 3 mps 663 mmHg 52%
    20:00 +26°C° 0.1 mm 3 mps 663 mmHg 57%
    21:00 +25°C° 0.3 mm 2 mps 663 mmHg 59%
    22:00 +25°C° 0.3 mm 2 mps 663 mmHg 60%
    23:00 +24°C° 0.3 mm 2 mps 664 mmHg 62%

    18 December, Wednesday

    Time Temperature Precipitation Wind Pressure Humidity
    00:00 +24°C° 0.2 mm 2 mps 663 mmHg 64%
    01:00 +24°C° 0.2 mm 2 mps 663 mmHg 65%
    02:00 +24°C° 0.2 mm 3 mps 663 mmHg 67%
    03:00 +24°C° 0.2 mm 2 mps 663 mmHg 68%
    04:00 +23°C° 0.2 mm 1 mps 663 mmHg 70%
    05:00 +23°C° 0.2 mm 1 mps 663 mmHg 71%
    06:00 +24°C° 0 mm 2 mps 664 mmHg 69%
    07:00 +24°C° 0 mm 2 mps 664 mmHg 67%
    08:00 +25°C° 0 mm 3 mps 664 mmHg 65%
    09:00 +26°C° 0.1 mm 4 mps 665 mmHg 60%
    10:00 +27°C° 0.1 mm 4 mps 665 mmHg 54%
    11:00 +28°C° 0.1 mm 5 mps 665 mmHg 49%
    12:00 +29°C° 0 mm 5 mps 665 mmHg 45%
    13:00 +30°C° 0 mm 5 mps 664 mmHg 41%
    14:00 +32°C° 0 mm 4 mps 664 mmHg 37%
    15:00 +32°C° 0 mm 4 mps 663 mmHg 37%
    16:00 +32°C° 0 mm 4 mps 663 mmHg 36%
    17:00 +31°C° 0 mm 3 mps 662 mmHg 35%
    18:00 +30°C° 0 mm 3 mps 662 mmHg 38%
    19:00 +29°C° 0 mm 3 mps 662 mmHg 41%
    20:00 +28°C° 0 mm 3 mps 662 mmHg 44%
    21:00 +27°C° 0 mm 3 mps 662 mmHg 50%
    22:00 +26°C° 0 mm 3 mps 663 mmHg 55%
    23:00 +25°C° 0 mm 3 mps 663 mmHg 61%
    Show more